Time,TemperatureF,DewpointF,PressureIn,WindDirection,WindDirectionDegrees,WindSpeedMPH,WindSpeedGustMPH,Humidity,HourlyPrecipIn,Conditions,Clouds,dailyrainin,SoftwareType,DateUTC
2013-06-07 00:02:00,70.7,63.9,29.94,North,0,0.0,0.0,79,0.00,,,0.00,WUHU216HW,2013-06-07 05:02:00,
2013-06-07 00:07:00,70.7,63.9,29.94,North,0,0.0,0.0,79,0.00,,,0.00,WUHU216HW,2013-06-07 05:07:00,
2013-06-07 00:30:00,70.2,63.7,29.93,North,0,0.0,0.0,80,0.00,,,0.00,WUHU216HW,2013-06-07 05:30:00,
2013-06-07 00:35:00,70.2,63.7,29.93,North,0,0.0,0.0,80,0.00,,,0.00,WUHU216HW,2013-06-07 05:35:00,
2013-06-07 01:00:00,69.7,63.6,29.93,North,0,0.0,0.0,81,0.00,,,0.00,WUHU216HW,2013-06-07 06:00:00,
2013-06-07 01:05:00,69.7,63.6,29.93,North,0,0.0,0.0,81,0.00,,,0.00,WUHU216HW,2013-06-07 06:05:00,
2013-06-07 01:30:00,69.8,63.7,29.93,North,0,0.0,0.0,81,0.00,,,0.00,WUHU216HW,2013-06-07 06:30:00,
2013-06-07 01:35:00,69.8,63.7,29.93,North,0,0.0,0.0,81,0.00,,,0.00,WUHU216HW,2013-06-07 06:35:00,
2013-06-07 02:00:00,69.5,63.4,29.93,North,0,0.0,0.0,81,0.00,,,0.00,WUHU216HW,2013-06-07 07:00:00,
2013-06-07 02:05:00,69.5,63.4,29.93,North,0,0.0,0.0,81,0.00,,,0.00,WUHU216HW,2013-06-07 07:05:00,
2013-06-07 02:30:00,69.1,63.4,29.93,North,0,0.0,0.0,82,0.00,,,0.00,WUHU216HW,2013-06-07 07:30:00,
2013-06-07 02:35:00,69.1,63.4,29.93,North,0,0.0,0.0,82,0.00,,,0.00,WUHU216HW,2013-06-07 07:35:00,
2013-06-07 03:00:00,68.8,63.1,29.93,North,0,0.0,0.0,82,0.00,,,0.00,WUHU216HW,2013-06-07 08:00:00,
2013-06-07 03:05:00,68.8,63.1,29.93,North,0,0.0,0.0,82,0.00,,,0.00,WUHU216HW,2013-06-07 08:05:00,
2013-06-07 03:30:00,68.4,63.1,29.93,North,0,0.0,0.0,83,0.00,,,0.00,WUHU216HW,2013-06-07 08:30:00,
2013-06-07 03:35:00,68.4,63.1,29.93,North,0,0.0,0.0,83,0.00,,,0.00,WUHU216HW,2013-06-07 08:35:00,
2013-06-07 04:00:00,67.3,62.0,29.93,North,0,0.0,0.0,83,0.00,,,0.00,WUHU216HW,2013-06-07 09:00:00,
2013-06-07 04:05:00,67.3,62.0,29.93,North,0,0.0,0.0,83,0.00,,,0.00,WUHU216HW,2013-06-07 09:05:00,
2013-06-07 04:30:00,66.6,61.6,29.93,North,0,0.0,0.0,84,0.00,,,0.00,WUHU216HW,2013-06-07 09:30:00,
2013-06-07 04:35:00,66.6,61.6,29.93,North,0,0.0,0.0,84,0.00,,,0.00,WUHU216HW,2013-06-07 09:35:00,
2013-06-07 05:00:00,66.4,61.4,29.93,North,0,0.0,0.0,84,0.00,,,0.00,WUHU216HW,2013-06-07 10:00:00,
2013-06-07 05:05:00,66.4,61.4,29.93,North,0,0.0,0.0,84,0.00,,,0.00,WUHU216HW,2013-06-07 10:05:00,
2013-06-07 05:30:00,66.2,61.2,29.93,North,0,0.0,0.0,84,0.00,,,0.00,WUHU216HW,2013-06-07 10:30:00,
2013-06-07 05:35:00,66.2,61.2,29.93,North,0,0.0,0.0,84,0.00,,,0.00,WUHU216HW,2013-06-07 10:35:00,
2013-06-07 06:00:00,65.9,60.9,29.94,North,0,0.0,0.0,84,0.00,,,0.00,WUHU216HW,2013-06-07 11:00:00,
2013-06-07 06:05:00,65.9,60.9,29.94,North,0,0.0,0.0,84,0.00,,,0.00,WUHU216HW,2013-06-07 11:05:00,
2013-06-07 06:30:00,65.7,61.0,29.95,North,0,0.0,0.0,85,0.00,,,0.00,WUHU216HW,2013-06-07 11:30:00,
2013-06-07 06:35:00,65.7,61.0,29.95,North,0,0.0,0.0,85,0.00,,,0.00,WUHU216HW,2013-06-07 11:35:00,
2013-06-07 07:00:00,66.1,61.4,29.95,North,0,0.0,0.0,85,0.00,,,0.00,WUHU216HW,2013-06-07 12:00:00,
2013-06-07 07:05:00,66.1,61.4,29.95,North,0,0.0,0.0,85,0.00,,,0.00,WUHU216HW,2013-06-07 12:05:00,
2013-06-07 07:30:00,66.8,62.1,29.95,North,0,0.0,0.0,85,0.00,,,0.00,WUHU216HW,2013-06-07 12:30:00,
2013-06-07 07:35:00,66.8,62.1,29.95,North,0,0.0,0.0,85,0.00,,,0.00,WUHU216HW,2013-06-07 12:35:00,
2013-06-07 08:00:00,68.0,63.0,29.95,North,0,0.0,0.0,84,0.00,,,0.00,WUHU216HW,2013-06-07 13:00:00,
2013-06-07 08:05:00,68.0,63.0,29.95,North,0,0.0,0.0,84,0.00,,,0.00,WUHU216HW,2013-06-07 13:05:00,
2013-06-07 08:30:00,69.5,63.7,29.96,North,0,0.0,0.0,82,0.00,,,0.00,WUHU216HW,2013-06-07 13:30:00,
2013-06-07 08:35:00,69.5,63.7,29.96,North,0,0.0,0.0,82,0.00,,,0.00,WUHU216HW,2013-06-07 13:35:00,
2013-06-07 09:00:00,70.4,63.9,29.96,North,0,0.0,0.0,80,0.00,,,0.00,WUHU216HW,2013-06-07 14:00:00,
2013-06-07 09:05:00,70.4,63.9,29.96,North,0,0.0,0.0,80,0.00,,,0.00,WUHU216HW,2013-06-07 14:05:00,
2013-06-07 09:30:00,72.0,63.6,29.97,North,0,0.0,0.0,75,0.00,,,0.00,WUHU216HW,2013-06-07 14:30:00,
2013-06-07 09:35:00,72.0,63.6,29.97,North,0,0.0,0.0,75,0.00,,,0.00,WUHU216HW,2013-06-07 14:35:00,
2013-06-07 10:00:00,73.1,63.2,29.99,North,0,0.0,0.0,71,0.00,,,0.00,WUHU216HW,2013-06-07 15:00:00,
2013-06-07 10:05:00,73.1,63.2,29.99,North,0,0.0,0.0,71,0.00,,,0.00,WUHU216HW,2013-06-07 15:05:00,
2013-06-07 10:30:00,74.2,62.9,29.99,North,0,0.0,0.0,68,0.00,,,0.00,WUHU216HW,2013-06-07 15:30:00,
2013-06-07 10:35:00,74.2,62.9,29.99,North,0,0.0,0.0,68,0.00,,,0.00,WUHU216HW,2013-06-07 15:35:00,
2013-06-07 11:00:00,75.2,62.2,29.99,North,0,0.0,0.0,64,0.00,,,0.00,WUHU216HW,2013-06-07 16:00:00,
2013-06-07 11:05:00,75.2,62.2,29.99,North,0,0.0,0.0,64,0.00,,,0.00,WUHU216HW,2013-06-07 16:05:00,
2013-06-07 11:30:00,76.5,61.1,29.99,North,0,0.0,0.0,59,0.00,,,0.00,WUHU216HW,2013-06-07 16:30:00,
2013-06-07 11:35:00,76.5,61.1,29.99,North,0,0.0,0.0,59,0.00,,,0.00,WUHU216HW,2013-06-07 16:35:00,
2013-06-07 12:00:00,77.9,60.9,29.98,North,0,0.0,0.0,56,0.00,,,0.00,WUHU216HW,2013-06-07 17:00:00,
2013-06-07 12:05:00,77.9,60.9,29.98,North,0,0.0,0.0,56,0.00,,,0.00,WUHU216HW,2013-06-07 17:05:00,
2013-06-07 12:30:00,79.0,60.9,29.97,North,0,0.0,0.0,54,0.00,,,0.00,WUHU216HW,2013-06-07 17:30:00,
2013-06-07 13:00:00,80.3,61.0,29.95,North,0,0.0,0.0,52,0.00,,,0.00,WUHU216HW,2013-06-07 18:00:00,
2013-06-07 13:05:00,80.3,61.0,29.95,North,0,0.0,0.0,52,0.00,,,0.00,WUHU216HW,2013-06-07 18:05:00,
2013-06-07 13:30:00,81.0,60.7,29.94,North,0,0.0,0.0,50,0.00,,,0.00,WUHU216HW,2013-06-07 18:30:00,
2013-06-07 13:35:00,81.0,60.7,29.94,North,0,0.0,0.0,50,0.00,,,0.00,WUHU216HW,2013-06-07 18:35:00,
2013-06-07 14:00:00,82.3,60.0,29.93,North,0,0.0,0.0,47,0.00,,,0.00,WUHU216HW,2013-06-07 19:00:00,
2013-06-07 14:05:00,82.3,60.0,29.93,North,0,0.0,0.0,47,0.00,,,0.00,WUHU216HW,2013-06-07 19:05:00,
2013-06-07 14:30:00,83.2,59.6,29.93,North,0,0.0,0.0,45,0.00,,,0.00,WUHU216HW,2013-06-07 19:30:00,
2013-06-07 14:35:00,83.2,59.6,29.93,North,0,0.0,0.0,45,0.00,,,0.00,WUHU216HW,2013-06-07 19:35:00,
2013-06-07 15:00:00,83.3,57.3,29.92,North,0,0.0,0.0,41,0.00,,,0.00,WUHU216HW,2013-06-07 20:00:00,
2013-06-07 15:05:00,83.3,57.3,29.92,North,0,0.0,0.0,41,0.00,,,0.00,WUHU216HW,2013-06-07 20:05:00,
2013-06-07 15:30:00,83.9,58.3,29.93,North,0,0.0,0.0,42,0.00,,,0.00,WUHU216HW,2013-06-07 20:30:00,
2013-06-07 15:35:00,83.9,58.3,29.93,North,0,0.0,0.0,42,0.00,,,0.00,WUHU216HW,2013-06-07 20:35:00,
2013-06-07 16:00:00,84.1,57.2,29.92,North,0,0.0,0.0,40,0.00,,,0.00,WUHU216HW,2013-06-07 21:00:00,
2013-06-07 16:05:00,84.1,57.2,29.92,North,0,0.0,0.0,40,0.00,,,0.00,WUHU216HW,2013-06-07 21:05:00,
2013-06-07 16:30:00,84.2,56.6,29.91,North,0,0.0,0.0,39,0.00,,,0.00,WUHU216HW,2013-06-07 21:30:00,
2013-06-07 16:35:00,84.2,56.6,29.91,North,0,0.0,0.0,39,0.00,,,0.00,WUHU216HW,2013-06-07 21:35:00,
2013-06-07 17:00:00,83.2,56.4,29.91,North,0,0.0,0.0,40,0.00,,,0.00,WUHU216HW,2013-06-07 22:00:00,
2013-06-07 17:05:00,83.2,56.4,29.91,North,0,0.0,0.0,40,0.00,,,0.00,WUHU216HW,2013-06-07 22:05:00,
2013-06-07 17:30:00,83.2,56.4,29.90,North,0,0.0,0.0,40,0.00,,,0.00,WUHU216HW,2013-06-07 22:30:00,
2013-06-07 17:35:00,83.2,56.4,29.90,North,0,0.0,0.0,40,0.00,,,0.00,WUHU216HW,2013-06-07 22:35:00,
2013-06-07 18:00:00,83.2,57.1,29.89,North,0,0.0,0.0,41,0.00,,,0.00,WUHU216HW,2013-06-07 23:00:00,
2013-06-07 18:05:00,83.2,57.1,29.89,North,0,0.0,0.0,41,0.00,,,0.00,WUHU216HW,2013-06-07 23:05:00,
2013-06-07 18:30:00,82.6,56.6,29.88,North,0,0.0,0.0,41,0.00,,,0.00,WUHU216HW,2013-06-07 23:30:00,
2013-06-07 18:35:00,82.6,56.6,29.88,North,0,0.0,0.0,41,0.00,,,0.00,WUHU216HW,2013-06-07 23:35:00,
2013-06-07 19:00:00,81.9,56.5,29.88,North,0,0.0,0.0,42,0.00,,,0.00,WUHU216HW,2013-06-08 00:00:00,
2013-06-07 19:05:00,81.9,56.5,29.88,North,0,0.0,0.0,42,0.00,,,0.00,WUHU216HW,2013-06-08 00:05:00,
2013-06-07 19:30:00,81.2,57.2,29.87,North,0,0.0,0.0,44,0.00,,,0.00,WUHU216HW,2013-06-08 00:30:00,
2013-06-07 19:35:00,81.2,57.2,29.87,North,0,0.0,0.0,44,0.00,,,0.00,WUHU216HW,2013-06-08 00:35:00,
2013-06-07 20:00:00,80.1,56.2,29.87,North,0,0.0,0.0,44,0.00,,,0.00,WUHU216HW,2013-06-08 01:00:00,
2013-06-07 20:05:00,80.1,56.2,29.87,North,0,0.0,0.0,44,0.00,,,0.00,WUHU216HW,2013-06-08 01:05:00,
2013-06-07 20:30:00,78.8,56.9,29.88,North,0,0.0,0.0,47,0.00,,,0.00,WUHU216HW,2013-06-08 01:30:00,
2013-06-07 20:35:00,78.8,56.9,29.88,North,0,0.0,0.0,47,0.00,,,0.00,WUHU216HW,2013-06-08 01:35:00,
2013-06-07 21:00:00,77.8,57.1,29.89,North,0,0.0,0.0,49,0.00,,,0.00,WUHU216HW,2013-06-08 02:00:00,
2013-06-07 21:05:00,77.8,57.1,29.89,North,0,0.0,0.0,49,0.00,,,0.00,WUHU216HW,2013-06-08 02:05:00,
2013-06-07 21:30:00,76.5,56.6,29.89,North,0,0.0,0.0,50,0.00,,,0.00,WUHU216HW,2013-06-08 02:30:00,
2013-06-07 21:35:00,76.5,56.6,29.89,North,0,0.0,0.0,50,0.00,,,0.00,WUHU216HW,2013-06-08 02:35:00,
2013-06-07 22:00:00,75.4,56.6,29.90,North,0,0.0,0.0,52,0.00,,,0.00,WUHU216HW,2013-06-08 03:00:00,
2013-06-07 22:05:00,75.4,56.6,29.90,North,0,0.0,0.0,52,0.00,,,0.00,WUHU216HW,2013-06-08 03:05:00,
2013-06-07 22:30:00,74.5,56.7,29.91,North,0,0.0,0.0,54,0.00,,,0.00,WUHU216HW,2013-06-08 03:30:00,
2013-06-07 22:35:00,74.5,56.7,29.91,North,0,0.0,0.0,54,0.00,,,0.00,WUHU216HW,2013-06-08 03:35:00,
2013-06-07 23:00:00,73.4,56.7,29.93,North,0,0.0,0.0,56,0.00,,,0.00,WUHU216HW,2013-06-08 04:00:00,
2013-06-07 23:01:00,73.4,56.7,29.93,North,0,0.0,0.0,56,0.00,,,0.00,WUHU216HW,2013-06-08 04:01:00,
2013-06-07 23:06:00,73.4,56.7,29.93,North,0,0.0,0.0,56,0.00,,,0.00,WUHU216HW,2013-06-08 04:06:00,
2013-06-07 23:30:00,72.0,56.9,29.92,North,0,0.0,0.0,59,0.00,,,0.00,WUHU216HW,2013-06-08 04:30:00,
2013-06-07 23:35:00,72.0,56.9,29.92,North,0,0.0,0.0,59,0.00,,,0.00,WUHU216HW,2013-06-08 04:35:00,